Miscellaneous Local Product
Issued by NWS Hastings, NE

Home | Current Version | Previous Version | Graphics & Text | Print | Product List | Glossary On
Versions: 1 2 3 4 5 6 7 8 9 10 11 12 13 14 15 16 17 18 19 20 21 22 23 24 25 26 27 28 29 30 31 32 33 34 35 36 37 38 39 40 41 42 43 44 45 46 47 48 49 50
000
AXUS43 KGID 220602
MISGRI

GID CWA HOURLY WEATHER ROUNDUP
NATIONAL WEATHER SERVICE HASTINGS NE
100 AM CDT TUE APR 22 2014

NOTE: "FAIR" INDICATES FEW OR NO CLOUDS BELOW 12,000 FEET WITH NO
SIGNIFICANT WEATHER AND/OR OBSTRUCTIONS TO VISIBILITY.

...SOUTH CENTRAL NEBRASKA...

CITY           SKY/WX    TMP DP  RH WIND       PRES   REMARKS
GRAND ISLAND   FAIR      49  32  52 E6        30.18S
HASTINGS       FAIR      49  28  44 NE7       30.18R
KEARNEY        FAIR      46  30  53 NE8       30.18S
ORD            CLEAR     38  27  64 SW3       30.16S
YORK           FAIR      48  30  49 NE6       30.17S
AURORA         FAIR      47  31  53 NE6       30.17F
LEXINGTON      CLEAR     43  32  65 CALM      30.18S
HOLDREGE       FAIR      47  30  52 E10       30.17S
HEBRON         FAIR      51  32  48 N3        30.17R

...NEBRASKA PANHANDLE...

CITY           SKY/WX    TMP DP  RH WIND       PRES   REMARKS
CHADRON        CLEAR     52  29  41 S12       30.07F
ALLIANCE       CLEAR     38  29  70 SE10      30.11F WCI  31
SCOTTSBLUFF    CLEAR     47  30  51 E10       30.10F
SIDNEY         CLEAR     45  29  53 S12       30.15F

...WESTERN AND NORTH CENTRAL NEBRASKA...

CITY           SKY/WX    TMP DP  RH WIND       PRES   REMARKS
VALENTINE      CLEAR     47  28  47 SE6       30.14F
AINSWORTH      CLEAR     46  31  57 SE8       30.15F
ONEILL         CLEAR     45  28  51 CALM      30.16F
BROKEN BOW     CLEAR     38  29  70 CALM      30.17S
IMPERIAL       CLEAR     46  28  49 SE12      30.17S
NORTH PLATTE   PTCLDY    40  28  62 E7        30.17S
MCCOOK         CLEAR     49  31  49 E3        30.17S

...EASTERN NEBRASKA...

CITY           SKY/WX    TMP DP  RH WIND       PRES   REMARKS
NORFOLK        FAIR      48  31  51 CALM      30.16S
SO SIOUX CITY  FAIR      50  31  48 NE6       30.15F
TEKAMAH        FAIR      43  29  57 N10       30.16R
COLUMBUS       FAIR      45  27  49 N5        30.17S
ALBION         FAIR      43  30  59 CALM      30.17S
OMAHA EPPLEY   FAIR      49  34  56 N5        30.15R
OFFUTT AFB     FAIR      55  34  44 N8        30.15R
MILLARD        FAIR      55  32  41 CALM      30.15R
LINCOLN        FAIR      50  32  50 N10       30.17R
NEBRASKA CITY  FAIR      53  32  44 N13       30.13R
BEATRICE       FAIR      52  29  40 N8        30.15R
FALLS CITY     FAIR      53  33  46 N6        30.11R

...NORTHERN KANSAS...

CITY           SKY/WX    TMP DP  RH WIND       PRES   REMARKS
GOODLAND       PTCLDY    45  30  55 S10       30.20S
HILL CITY      FAIR      48  37  65 CALM      30.18R
PHILLIPSBURG   CLEAR     46  34  61 E3        30.17R
SMITH CENTER   CLEAR     54  27  35 NE10      30.17R
BELOIT         CLEAR     45  36  70 N9        30.15R
HAYS           FAIR      48  34  57 NE10      30.17R
RUSSELL        FAIR      52  31  44 NE7       30.15R
CONCORDIA      FAIR      51  29  42 N5        30.16R
SALINA         FAIR      51  27  39 N6        30.14R
TOPEKA         FAIR      57  33  40 N10       30.09R



USA.gov is the U.S. government's official web portal to all federal, state and local government web resources and services.